[[{"header":{"parameterUnit":"m.s-1","parameterCategory":1,"la1":30.2991,"la2":30.254,"lo1":-89.0895,"lo2":-89.0444,"dy":0.0017,"dx":0.0017,"nx":28,"ny":28,"refTime":"2023-09-04T03:00:00:Z","depth":0,"parameterNumber":2,"parameterNumberName":"U-component_of_WINDS"},"data":[0,0,0,0,0,0,0,0,0,0,0,0,0,0,0,0,0,0,0,0,0,0,0,0,0,0,0,0,0,0,0,0,0,0,0,0,0,0,0,0,0,0,0,0,0,0,0,0,0,0,0,0,0,0,0,0,0,0,-3.7338,-3.7339,0,-3.7436,-3.7437,-3.7438,-3.7411,-3.7409,-3.7407,-3.7405,-3.7504,-3.7508,-3.7513,0,0,0,0,0,0,0,0,0,0,0,0,0,-3.7123,-3.7127,-3.7337,-3.7339,-3.734,-3.7436,-3.7437,-3.7439,-3.7411,-3.7409,-3.7406,-3.7404,-3.7502,-3.7508,-3.7513,0,0,0,0,0,0,0,0,0,0,0,0,0,-3.7218,-3.7129,-3.7337,-3.7338,-3.7339,-3.7436,-3.7437,-3.7439,-3.7412,-3.7409,-3.7406,-3.7403,-3.7501,-3.7507,-3.7514,-3.7616,0,0,-3.7535,-3.7538,0,0,0,0,0,0,0,0,-3.7213,-3.7226,-3.7336,-3.7338,-3.7339,-3.7408,-3.7398,-3.7498,-3.7412,-3.7384,-3.7405,-3.7401,-3.7474,-3.7483,-3.7508,-3.762,-3.7625,-3.7535,-3.7539,-3.7542,-3.7544,0,0,0,0,0,0,0,-3.7207,-3.7222,-3.7376,-3.7338,-3.734,-3.7332,-3.7343,-3.7417,-3.7445,-3.7386,-3.7384,-3.7396,-3.7474,-3.7502,-3.751,-3.7626,-3.7535,-3.7541,-3.7545,-3.7548,-3.7825,-3.7828,0,0,0,0,0,0,-3.7199,-3.7217,-3.7373,-3.7379,-3.7268,-3.7339,-3.735,-3.7389,-3.7444,-3.7449,-3.7399,-3.7395,-3.7492,-3.7502,-3.7514,-3.7634,-3.7542,-3.7548,-3.7552,-3.7821,-3.7825,-3.7829,0,0,0,0,0,0,-3.7195,-3.7213,-3.7369,-3.7298,-3.7317,-3.7346,-3.7389,-3.7392,-3.742,-3.7454,-3.7458,-3.7422,-3.749,-3.7504,-3.759,-3.7637,-3.7552,-3.7558,-3.7818,-3.7823,-3.7827,-3.7878,0,0,0,0,0,0,-3.7189,-3.7212,-3.7251,-3.7299,-3.7321,-3.7445,-3.7392,-3.7397,-3.7432,-3.7427,-3.7476,-3.7481,-3.7488,-3.758,-3.7597,-3.7645,-3.7563,-3.7813,-3.782,-3.7826,-3.7872,-3.7884,-3.7894,0,0,0,0,0,-3.7181,-3.7262,-3.7254,-3.7273,-3.7371,-3.7448,-3.746,-3.7467,-3.7436,-3.7475,-3.7497,-3.748,-3.763,-3.7589,-3.7608,-3.7659,-3.781,-3.7818,-3.7825,-3.7867,-3.7882,-3.7894,0,0,0,0,0,0,-3.7219,-3.7268,-3.7259,-3.7358,-3.7399,-3.7443,-3.7493,-3.7483,-3.7533,-3.7527,-3.7533,-3.7544,-3.7632,-3.7655,-3.7608,-3.7759,-3.7715,-3.7727,-3.7741,-3.7755,-3.7766,-3.7757,-3.7569,0,0,0,0,0,-3.7239,-3.7298,-3.7338,-3.7421,-3.7442,-3.7464,-3.7498,-3.75,-3.7542,-3.7559,-3.7587,-3.7628,-3.7685,-3.7722,-3.7776,-3.7876,-3.7885,-3.792,-3.7931,-3.794,-3.7949,-3.8002,-3.8017,-3.7853,-3.7853,-3.7853,0,0,-3.728,-3.7315,-3.7351,-3.7429,-3.7461,-3.7521,-3.7479,-3.7544,-3.7588,-3.7569,-3.7651,-3.7674,-3.772,-3.7813,-3.7856,-3.7834,-3.7997,-3.795,-3.7957,-3.7961,-3.8011,-3.8027,-3.804,-3.7858,-3.7858,-3.7857,0,0,-3.7386,-3.7419,-3.7491,-3.7524,-3.7573,-3.7587,-3.7604,-3.765,-3.7664,-3.7747,-3.7733,-3.7786,-3.7883,-3.7916,-3.7946,-3.8064,-3.8049,-3.8082,-3.8138,-3.8189,-3.8202,-3.8214,-3.8253,-3.8268,-3.8091,-3.8091,-3.8091,0,-3.7431,-3.7521,-3.7529,-3.7595,-3.7629,-3.7615,-3.7687,-3.7718,-3.7782,-3.7806,-3.7782,-3.7903,-3.7933,-3.8033,-3.8062,-3.8087,-3.8105,-3.8075,-3.82,-3.8211,-3.8222,-3.826,-3.8275,-3.8094,-3.8094,-3.8094,-3.8093,0,-3.7573,-3.7636,-3.7688,-3.775,-3.779,-3.7859,-3.7876,-3.7915,-3.7914,-3.7931,-3.8014,-3.8051,-3.8111,-3.8135,-3.8135,-3.8235,-3.822,-3.8198,-3.8154,-3.8241,-3.8276,-3.8291,-3.8099,-3.8098,-3.8097,-3.8096,0,0,-3.7704,-3.7769,-3.7788,-3.7815,-3.7868,-3.7916,-3.7984,-3.8043,-3.8076,-3.8121,-3.8177,-3.826,-3.8239,-3.8273,-3.8276,-3.8322,-3.841,-3.8294,-3.8295,-3.8312,-3.852,-3.8533,-3.855,-3.8402,-3.8405,-3.8407,-3.8515,0,-3.7812,-3.7931,-3.794,-3.8047,-3.8104,-3.8092,-3.8151,-3.8189,-3.8207,-3.8257,-3.8276,-3.8334,-3.8304,-3.8324,-3.8369,-3.839,-3.8451,-3.8383,-3.8452,-3.8454,-3.8438,-3.8569,-3.8585,-3.8684,-3.8529,-3.8531,-3.8533,0,-3.7954,-3.8002,-3.8115,-3.8159,-3.8183,-3.8236,-3.829,-3.8339,-3.8382,-3.8391,-3.8429,-3.8426,-3.8494,-3.8449,-3.8543,-3.8496,-3.8525,-3.854,-3.8544,-3.8548,-3.8497,-3.8575,-3.8717,-3.873,-3.8556,-3.8554,-3.8552,0,-3.8034,-3.8129,-3.8208,-3.8232,-3.8285,-3.8322,-3.8346,-3.8386,-3.8421,-3.8469,-3.8491,-3.8546,-3.8575,-3.8618,-3.8629,-3.8596,-3.8721,-3.8678,-3.8729,-3.8729,-3.8754,-3.8752,-3.89,-3.8778,-3.8777,-3.8777,-3.8777,0,-3.8153,-3.8222,-3.8244,-3.8293,-3.8369,-3.8379,-3.8454,-3.8475,-3.8511,-3.8563,-3.8557,-3.8605,-3.8618,-3.8669,-3.8679,-3.8753,-3.8767,-3.8776,-3.8777,-3.8775,-3.8773,-3.8792,-3.8784,-3.8781,-3.878,-3.8779,-3.8779,0,-3.8255,-3.8273,-3.8358,-3.8402,-3.8414,-3.8469,-3.8506,-3.8552,-3.8568,-3.8634,-3.865,-3.8676,-3.8735,-3.8751,-3.8822,-3.8829,-3.8916,-3.8912,-3.8901,-3.89,-3.8949,-3.8943,-3.9112,-3.9134,-3.9,-3.9001,-3.9002,0,-3.8328,-3.838,-3.8429,-3.8464,-3.8489,-3.8545,-3.8579,-3.8591,-3.8627,-3.868,-3.8719,-3.8778,-3.8825,-3.892,-3.8945,-3.8999,-3.8995,-3.905,-3.9002,-3.8998,-3.8992,-3.8988,-3.8992,-3.9058,-3.9059,-3.9061,-3.9062,0,-3.8454,-3.8461,-3.8511,-3.8566,-3.8607,-3.8651,-3.8692,-3.872,-3.8737,-3.8779,-3.8839,-3.8876,-3.8948,-3.9006,-3.906,-3.9084,-3.9075,-3.9077,-3.9091,-3.9088,-3.9078,-3.9081,-3.8922,-3.9072,-3.9071,-3.907,-3.907,-3.9069,-3.8542,-3.8588,-3.8629,-3.8685,-3.8718,-3.8756,-3.8801,-3.8823,-3.8874,-3.8933,-3.8937,-3.9002,-3.9043,-3.9115,-3.9142,-3.9193,-3.9176,-3.9197,-3.9202,-3.9207,-3.9209,-3.9073,-3.9203,-3.9203,-3.9203,-3.9202,-3.9202,0,-3.8666,-3.8692,-3.8744,-3.8802,-3.8846,-3.8835,-3.888,-3.8917,-3.8974,-3.9013,-3.906,-3.9128,-3.9184,-3.9213,-3.9268,-3.9303,-3.93,-3.9317,-3.9313,-3.9318,-3.9223,-3.9203,-3.9318,-3.9318,-3.9318,-3.9318,-3.9318,-3.9318,-3.8736,-3.8811,-3.8822,-3.8913,-3.8938,-3.9002,-3.9028,-3.9063,-3.9094,-3.9171,-3.9217,-3.9236,-3.9271,-3.9328,-3.9378,-3.9385,-3.9405,-3.9423,-3.9428,-3.9337,-3.9325,-3.9314,-3.9296,-3.9428,-3.9428,-3.9519,-3.9519,-3.952]},{"header":{"parameterUnit":"m.s-1","parameterCategory":1,"la1":30.2991,"la2":30.254,"lo1":-89.0895,"lo2":-89.0444,"dy":0.0017,"dx":0.0017,"nx":28,"ny":28,"refTime":"2023-09-04T03:00:00:Z","depth":0,"parameterNumber":3,"parameterNumberName":"V-component_of_WINDS"},"data":[0,0,0,0,0,0,0,0,0,0,0,0,0,0,0,0,0,0,0,0,0,0,0,0,0,0,0,0,0,0,0,0,0,0,0,0,0,0,0,0,0,0,0,0,0,0,0,0,0,0,0,0,0,0,0,0,0,0,2.4672,2.4672,0,2.4685,2.4685,2.4685,2.4621,2.4619,2.4618,2.4616,2.4627,2.4629,2.4631,0,0,0,0,0,0,0,0,0,0,0,0,0,2.4591,2.4593,2.4672,2.4672,2.4672,2.4685,2.4685,2.4685,2.4622,2.4619,2.4617,2.4615,2.4626,2.4629,2.4631,0,0,0,0,0,0,0,0,0,0,0,0,0,2.4617,2.4593,2.4672,2.4642,2.464,2.4685,2.4685,2.4685,2.4622,2.4619,2.4617,2.4614,2.4626,2.4629,2.4632,2.4705,0,0,2.4641,2.4642,0,0,0,0,0,0,0,0,2.4616,2.462,2.4646,2.4644,2.4642,2.4649,2.466,2.4692,2.4623,2.4629,2.4616,2.4613,2.4636,2.4638,2.4647,2.4706,2.4706,2.4641,2.4643,2.4644,2.4645,0,0,0,0,0,0,0,2.4614,2.4619,2.4677,2.4647,2.4644,2.4628,2.4628,2.4666,2.4648,2.4628,2.4623,2.4626,2.4634,2.4644,2.4646,2.4706,2.4641,2.4644,2.4645,2.4647,2.4825,2.4828,0,0,0,0,0,0,2.4616,2.4618,2.4676,2.4677,2.4622,2.4631,2.4632,2.4649,2.4647,2.4644,2.4628,2.4623,2.464,2.4643,2.4647,2.4731,2.4644,2.4647,2.4649,2.4822,2.4826,2.4829,0,0,0,0,0,0,2.4615,2.4622,2.4676,2.4647,2.4652,2.4636,2.4655,2.4651,2.466,2.4647,2.4644,2.4641,2.4638,2.4642,2.4691,2.4731,2.4648,2.4651,2.4819,2.4823,2.4828,2.4902,0,0,0,0,0,0,2.4613,2.4622,2.465,2.4648,2.4654,2.4721,2.4658,2.4653,2.4666,2.4659,2.4659,2.4656,2.4636,2.4687,2.4694,2.4733,2.4653,2.4815,2.4821,2.4826,2.4896,2.4909,2.492,0,0,0,0,0,2.461,2.4671,2.4652,2.4659,2.4689,2.4723,2.4727,2.4703,2.4669,2.4697,2.4689,2.4656,2.4726,2.4692,2.47,2.4741,2.4813,2.4819,2.4826,2.4891,2.4906,2.4919,0,0,0,0,0,0,2.4677,2.467,2.4649,2.471,2.4718,2.4712,2.4746,2.4721,2.4737,2.473,2.47,2.4701,2.4754,2.4753,2.4715,2.4812,2.4763,2.4772,2.481,2.4825,2.4836,2.4834,2.4656,0,0,0,0,0,2.4699,2.4729,2.472,2.4775,2.478,2.4763,2.4777,2.4759,2.4765,2.4768,2.4763,2.477,2.4793,2.4809,2.483,2.4897,2.4895,2.4929,2.494,2.495,2.4957,2.4991,2.5005,2.4851,2.4851,2.4851,0,0,2.4745,2.4744,2.4764,2.4789,2.4792,2.4822,2.4766,2.48,2.4822,2.4773,2.4818,2.4815,2.4821,2.4878,2.4903,2.4879,2.5,2.4958,2.4966,2.4968,2.4999,2.5013,2.5026,2.4855,2.4855,2.4854,0,0,2.4843,2.4846,2.4892,2.4897,2.4904,2.4892,2.4903,2.4902,2.4898,2.4943,2.4907,2.4932,2.4974,2.4979,2.4987,2.5088,2.5058,2.5096,2.5156,2.5189,2.5202,2.5212,2.5246,2.5259,2.5104,2.5104,2.5104,0,2.4898,2.4942,2.4918,2.4955,2.4966,2.4924,2.497,2.4976,2.4989,2.4997,2.497,2.5021,2.5022,2.5079,2.5104,2.5113,2.5124,2.5095,2.5202,2.5212,2.5222,2.5254,2.5267,2.5108,2.5108,2.5107,2.5107,0,2.5009,2.5041,2.5077,2.5091,2.5106,2.5147,2.5129,2.5147,2.5128,2.512,2.5166,2.5166,2.5186,2.5199,2.518,2.5254,2.5238,2.5207,2.5157,2.5241,2.5271,2.5283,2.5115,2.5113,2.5112,2.5111,0,0,2.5147,2.5149,2.5162,2.5167,2.5173,2.5196,2.5235,2.5255,2.5271,2.5282,2.5313,2.535,2.5321,2.5331,2.5312,2.5342,2.542,2.5307,2.5307,2.5326,2.55,2.5521,2.5536,2.5402,2.5404,2.5406,2.5499,0,2.5241,2.5308,2.5288,2.5355,2.5383,2.5344,2.5378,2.5385,2.5378,2.54,2.5393,2.5418,2.538,2.5385,2.5413,2.5405,2.5454,2.5398,2.5429,2.543,2.5426,2.5552,2.5575,2.5663,2.551,2.5512,2.5514,0,2.5359,2.5376,2.5446,2.5446,2.5457,2.5487,2.5504,2.5527,2.5533,2.5526,2.5537,2.5513,2.5551,2.5503,2.5554,2.5516,2.5528,2.5526,2.5529,2.5529,2.5475,2.5553,2.569,2.5703,2.5532,2.5531,2.5529,0,2.5451,2.549,2.5537,2.5543,2.5545,2.5567,2.5569,2.5573,2.5586,2.5601,2.5609,2.5628,2.5638,2.5653,2.5635,2.5602,2.5688,2.5639,2.5682,2.5682,2.5699,2.5698,2.5838,2.5711,2.5711,2.5711,2.571,0,2.5557,2.56,2.5578,2.5606,2.5654,2.5631,2.5679,2.5676,2.568,2.5707,2.5675,2.5701,2.5676,2.5699,2.5685,2.5728,2.5734,2.5728,2.5723,2.573,2.573,2.5735,2.5728,2.5714,2.5713,2.5713,2.5712,0,2.5666,2.5652,2.57,2.5699,2.5699,2.5734,2.5732,2.5758,2.575,2.5784,2.5791,2.5778,2.5803,2.5787,2.5813,2.5804,2.586,2.5848,2.5858,2.5854,2.5897,2.5892,2.6042,2.606,2.5924,2.5926,2.5927,0,2.5733,2.5766,2.5768,2.5784,2.5787,2.5814,2.5827,2.5806,2.5822,2.5832,2.5856,2.588,2.5897,2.594,2.5932,2.5952,2.5939,2.599,2.5941,2.5946,2.5937,2.5934,2.5937,2.5999,2.6001,2.6002,2.6003,0,2.5853,2.5845,2.5866,2.5885,2.5903,2.5917,2.5928,2.5943,2.5922,2.594,2.5967,2.598,2.6007,2.603,2.6047,2.6048,2.6022,2.6019,2.603,2.6035,2.6038,2.6035,2.5882,2.6015,2.6014,2.6013,2.6012,2.6012,2.5942,2.5969,2.5974,2.5999,2.6005,2.6017,2.6041,2.6036,2.6058,2.6078,2.6065,2.6095,2.6101,2.6121,2.6125,2.6149,2.6128,2.6143,2.6147,2.6151,2.6156,2.6037,2.6152,2.6152,2.6151,2.6151,2.6151,0,2.6058,2.606,2.6083,2.61,2.612,2.6095,2.6106,2.6124,2.6151,2.6159,2.6177,2.6207,2.623,2.6224,2.6244,2.6264,2.6253,2.627,2.6267,2.6267,2.6174,2.6162,2.6279,2.6279,2.6279,2.6279,2.6279,2.6279,2.6121,2.6165,2.6158,2.6205,2.6207,2.6237,2.6245,2.6255,2.6261,2.6296,2.6315,2.6312,2.6314,2.6334,2.6354,2.6352,2.6359,2.6381,2.6374,2.6287,2.6274,2.6262,2.625,2.6383,2.6384,2.6465,2.6466,2.6466]}]]